Location: Argonnex
(45.9500°N, 6.1333°E)
Time: 20:39:42
(UTC+00:00)

deb Kosmos-1275 - Visible Passes

Search period start: 27 February 2024 00:00
Search period end: 08 March 2024 00:00
Orbit: 828 x 1073 km, 83.0° (Epoch: 26 February)

Date Brightness Start Highest point End Pass type
(mag) Time Alt. Az. Time Alt. Az. Time Alt. Az.
03 Mar ? 22:03:30 10° N 22:03:39 11° N 22:03:39 11° N visible
04 Mar ? 22:21:04 10° N 22:21:30 12° N 22:21:30 12° N visible
05 Mar ? 22:38:47 10° N 22:39:21 13° N 22:39:21 13° N visible
06 Mar ? 21:12:26 10° NNE 21:13:04 13° NNE 21:13:04 13° NNE visible
06 Mar ? 22:56:38 10° NNW 22:57:12 13° NNW 22:57:12 13° NNW visible
07 Mar ? 21:29:44 10° N 21:30:55 16° NNE 21:30:55 16° NNE visible
07 Mar ? 23:14:38 10° NNW 23:15:02 12° NNW 23:15:02 12° NNW visible
